Weather History for KFSD - March, 2014

Change the Weather History Date:

Monday, March 31, 2014

  Actual Average Record
Temperature  
Mean Temperature 44 °F 40 °F  
Max Temperature 71 °F 51 °F 83 °F (2012)
Min Temperature 16 °F 28 °F 6 °F (1899)
Degree Days  
Heating Degree Days 21 26  
Month to date heating degree days 1101 995  
Since 1 July heating degree days 7448 6845  
Cooling Degree Days 0 0  
Month to date cooling degree days 0 0  
Year to date cooling degree days 0 0  
Moisture  
Dew Point 27 °F    
Average Humidity 61    
Maximum Humidity 85    
Minimum Humidity 36    
Precipitation  
Precipitation 0.01 in 0.09 in 3.27 in (2007)
Month to date precipitation 0.71 1.76  
Year to date precipitation 1.70 2.92  
Snow  
Snow 0.20 in 0.20 in 9.30 in (1998)
Month to date snowfall 7.7 8.4  
Since 1 July snowfall 41.9 39.9  
Snow Depth 0.00 in    
Sea Level Pressure  
Sea Level Pressure 29.48 in    
Wind  
Wind Speed 21 mph (WSW)    
Max Wind Speed 39 mph    
Max Gust Speed 51 mph    
Visibility 7 miles    
Events Rain , Snow    
T = Trace of Precipitation, MM = Missing Value Source: NWS Daily Summary

Daily Weather History Graph

Daily Weather History Graph

Search for Another Location

Airport or City:

Trip Planner

Search our weather history database for the weather conditions in past years. The results will help you decide how hot, cold, wet, or windy it might be!

Date:

Astronomy

Mar. 31, 2014 Rise Set
Actual Time 7:10 AM CDT 7:52 PM CDT
Civil Twilight 6:41 AM CDT 8:21 PM CDT
Nautical Twilight 6:07 AM CDT 8:55 PM CDT
Astronomical Twilight 5:31 AM CDT 9:31 PM CDT
Moon 7:32 AM CDT 9:15 PM CDT
Length of Visible Light 13h 40m
Length of Day
12h 42m
New Moon, 1% of the Moon is Illuminated
Mar 31
New Moon
Apr 7
First Quarter
Apr 15
Full
Apr 22
Last Quarter
Apr 29
New

Hourly Weather History & Observations

Time (CDT) Temp. Windchill Dew Point Humidity Pressure Visibility Wind Dir Wind Speed Gust Speed Precip Events Conditions
12:56 AM 55.0 °F - 36.0 °F 49% 29.55 in 10.0 mi SE 11.5 mph - N/A   Clear
1:56 AM 55.0 °F - 36.0 °F 49% 29.53 in 10.0 mi SE 13.8 mph - N/A   Clear
2:56 AM 55.0 °F - 36.0 °F 49% 29.50 in 10.0 mi SE 13.8 mph - N/A   Clear
3:56 AM 55.0 °F - 36.0 °F 49% 29.47 in 10.0 mi ESE 11.5 mph - N/A   Clear
4:56 AM 53.1 °F - 36.0 °F 52% 29.44 in 10.0 mi ESE 11.5 mph - N/A   Overcast
5:56 AM 54.0 °F - 36.0 °F 51% 29.44 in 10.0 mi SE 9.2 mph - N/A   Overcast
6:56 AM 50.0 °F - 37.9 °F 63% 29.41 in 10.0 mi ESE 13.8 mph - 0.00 in   Mostly Cloudy
7:56 AM 51.1 °F - 37.9 °F 61% 29.40 in 10.0 mi SE 16.1 mph - N/A   Scattered Clouds
8:56 AM 57.0 °F - 39.0 °F 51% 29.37 in 10.0 mi SE 20.7 mph 29.9 mph N/A   Partly Cloudy
9:56 AM 59.0 °F - 39.9 °F 49% 29.35 in 10.0 mi SSE 19.6 mph 32.2 mph N/A   Partly Cloudy
10:56 AM 63.0 °F - 41.0 °F 45% 29.31 in 10.0 mi SE 27.6 mph 33.4 mph N/A   Partly Cloudy
11:56 AM 66.0 °F - 41.0 °F 40% 29.26 in 10.0 mi SSE 21.9 mph 36.8 mph N/A   Clear
12:56 PM 70.0 °F - 41.0 °F 35% 29.23 in 10.0 mi South 21.9 mph 31.1 mph N/A   Partly Cloudy
1:21 PM 68.0 °F - 39.9 °F 36% 29.23 in 10.0 mi SSW 19.6 mph 34.5 mph N/A   Partly Cloudy
1:56 PM 66.9 °F - 39.9 °F 37% 29.23 in 10.0 mi SSW 15.0 mph 23.0 mph N/A   Partly Cloudy
2:56 PM 63.0 °F - 42.1 °F 46% 29.24 in 10.0 mi WSW 17.3 mph 29.9 mph N/A   Scattered Clouds
3:56 PM 46.0 °F 38.5 °F 35.1 °F 66% 29.31 in 10.0 mi WSW 19.6 mph 34.5 mph N/A   Mostly Cloudy
4:15 PM 41.0 °F 30.9 °F 33.1 °F 73% 29.32 in 10.0 mi West 24.2 mph 33.4 mph N/A   Mostly Cloudy
4:35 PM 36.0 °F 23.5 °F 30.0 °F 79% 29.34 in 10.0 mi West 27.6 mph 46.0 mph 0.00 in Rain Light Rain
4:56 PM 32.0 °F 17.2 °F 28.0 °F 85% 29.36 in 10.0 mi West 32.2 mph 47.2 mph 0.00 in   Overcast
5:56 PM 25.0 °F 7.8 °F 19.0 °F 78% 29.46 in 10.0 mi WNW 31.1 mph 44.9 mph 0.00 in   Overcast
6:16 PM 24.1 °F 6.9 °F 18.0 °F 77% 29.46 in 10.0 mi WNW 29.9 mph 51.8 mph N/A   Overcast
6:45 PM 23.0 °F 5.1 °F 16.0 °F 74% 29.49 in 10.0 mi WNW 31.1 mph 47.2 mph 0.00 in   Light Ice Pellets
6:56 PM 21.9 °F 4.2 °F 16.0 °F 78% 29.55 in 9.0 mi WNW 28.8 mph 46.0 mph 0.00 in   Light Ice Pellets
7:10 PM 21.9 °F 4.5 °F 17.1 °F 82% 29.53 in 2.5 mi WNW 27.6 mph 42.6 mph 0.00 in Snow Light Snow
7:14 PM 21.0 °F 1.9 °F 17.1 °F 85% 29.53 in 1.8 mi WNW 33.4 mph 42.6 mph 0.00 in Snow Light Snow
7:28 PM 19.9 °F 1.5 °F 17.1 °F 89% 29.55 in 0.5 mi WNW 28.8 mph 47.2 mph 0.00 in Snow Snow
7:30 PM 19.9 °F 1.5 °F 17.1 °F 89% 29.55 in 0.5 mi WNW 28.8 mph 38.0 mph 0.00 in Snow Snow
7:36 PM 19.9 °F 3.2 °F 17.1 °F 89% 29.55 in 0.5 mi WNW 23.0 mph 46.0 mph 0.00 in Snow Snow
7:44 PM 19.9 °F 1.3 °F 16.0 °F 85% 29.56 in 1.0 mi WNW 29.9 mph 43.7 mph 0.00 in Snow Light Snow
7:56 PM 19.0 °F 0.6 °F 15.1 °F 85% 29.62 in 1.0 mi WNW 27.6 mph 42.6 mph 0.00 in Snow Light Snow
8:02 PM 19.0 °F 0.3 °F 15.1 °F 85% 29.58 in 3.0 mi WNW 28.8 mph 44.9 mph 0.00 in Snow Light Snow
8:05 PM 19.0 °F 0.6 °F 15.1 °F 85% 29.59 in 3.0 mi WNW 27.6 mph 44.9 mph 0.00 in Snow Light Snow
8:16 PM 19.0 °F 0.6 °F 14.0 °F 81% 29.61 in 3.0 mi WNW 27.6 mph 41.4 mph 0.00 in Snow Light Snow
8:56 PM 17.1 °F -3.8 °F 12.9 °F 84% 29.68 in 3.0 mi WNW 34.5 mph 42.6 mph 0.00 in Snow Light Snow
9:56 PM 17.1 °F 0.1 °F 10.9 °F 77% 29.74 in 6.0 mi WNW 20.7 mph 41.4 mph 0.00 in Snow Light Snow
10:49 PM 17.1 °F -1.7 °F 10.9 °F 77% 29.75 in 2.0 mi NW 26.5 mph 35.7 mph 0.00 in Snow Light Snow
10:56 PM 17.1 °F -2.0 °F 10.9 °F 77% 29.79 in 2.0 mi NW 27.6 mph 42.6 mph 0.00 in Snow Light Snow
11:43 PM 17.1 °F -1.4 °F 10.9 °F 77% 29.79 in 4.0 mi WNW 25.3 mph 39.1 mph 0.00 in Snow Light Snow
11:56 PM 17.1 °F -1.7 °F 10.9 °F 77% 29.83 in 4.0 mi NW 26.5 mph 40.3 mph 0.00 in Snow Light Snow